Torna al catalogo

STARLINK-31717

AttivoComunicazioniVLEO
NORAD 59385·PAYLOAD·🇺🇸 United States

Lanciato Apr 2, 2024 da Vandenberg Space Force Base

Loading…

Prossimi Passaggi (prossime 24 ore)

TLE

AggiornatoSource: CelesTrak SupGP

Epoca: Sep 15, 2026, 02:12 UTC

1 59385C 24062M   26258.09215278  .00011907  00000+0  35178-3 0  2583
2 59385  53.1575  92.7313 0001098  80.6552 312.6587 15.34386317    11

Traccia STARLINK-31717 in tempo reale con AllMySat

Download on the App Store